Weather Roundup
Issued by NWS Springfield, MO

Home | Current Version | Previous Version | Graphics & Text | Print | Product List | Glossary On
Versions: 1 2 3 4 5 6 7 8 9 10 11 12 13 14 15 16 17 18 19 20 21 22 23 24 25 26 27 28 29 30 31 32 33 34 35 36 37 38 39 40 41 42 43 44 45 46 47 48 49 50
000
NZUS99 KSGF 291607
HRRSGF

HOURLY WEATHER
NATIONAL WEATHER SERVICE SPRINGFIELD MO
1100 AM CDT FRI APR 29 2016

......SGF CWA......

CITY           SKY/WX    TMP DP  RH WIND       PRES   REMARKS
SPRINGFIELD    LGT RAIN  54  50  86 E9        29.97F
JOPLIN         PTSUNNY   58  53  84 E18G28    29.85F
WEST PLAINS    LGT RAIN  53  48  83 CALM      30.06R
ROLLA          CLOUDY    53  49  86 SE3       30.05R
OSAGE BEACH    CLOUDY    54  43  66 E7        30.03F
BRANSON        LGT RAIN  52  52 100 E25G31    29.90F

......SURROUNDING SGF CWA......

CITY           SKY/WX    TMP DP  RH WIND       PRES   REMARKS
CHANUTE        MOSUNNY   59  48  67 NE15G21   29.93R
PARSONS        PTSUNNY   59  51  75 CALM      29.92R
COFFEYVILLE    PTSUNNY   60  50  69 E13       29.91R
EMPORIA        CLOUDY    51  44  77 N16       29.98F
GROVE OK       PTSUNNY   61  55  82 E16G28    29.85S
ROGERS AR      CLOUDY    56  53  90 E8        29.91R
SILOAM SPRINGS CLOUDY    57  48  72 E9        29.89R
HARRISON AR    LGT RAIN  53  52  96 E21G30    29.91F FOG
NEAR YELLVILLE CLOUDY   N/A N/A N/A NE8       29.98F

......KANSAS AND MISSOURI......

CITY           SKY/WX    TMP DP  RH WIND       PRES   REMARKS
KANSAS CTY INT CLOUDY    52  44  74 E13       30.03F
DOWNTOWN KC    CLOUDY    54  44  69 NE13      30.01F
COLUMBIA       CLOUDY    56  49  77 NE7       30.06R
SEDALIA        CLOUDY    56  48  74 E12       30.04S
ST JOSEPH      CLOUDY    51  43  74 NE9       30.06F
ST LOUIS       CLOUDY    60  48  64 SE6       30.07R
SPIRIT OF STL  CLOUDY    60  50  69 S5        30.07R
KIRKSVILLE     CLOUDY    53  45  74 NE9       30.06F
WICHITA        CLOUDY    50  45  83 NE28G35   29.89F
TOPEKA         CLOUDY    50  43  77 NE13      30.02F
OLATHE         CLOUDY    51  44  77 E13       30.02R

......TENNESSEE......

CITY           SKY/WX    TMP DP  RH WIND       PRES   REMARKS
MEMPHIS        TSTM      66  59  78 NE12      29.92R
NASHVILLE      CLOUDY    75  53  46 E5        30.02S

......ARKANSAS.......

CITY           SKY/WX    TMP DP  RH WIND       PRES   REMARKS
FAYETTEVILLE   CLOUDY    58  55  90 E12G20    29.85F
FT SMITH       CLOUDY    61  54  77 E14       29.87R
LITTLE ROCK    TSTM      63  61  93 N5        29.92R FOG

......OKLAHOMA.......

CITY           SKY/WX    TMP DP  RH WIND       PRES   REMARKS
TULSA          CLOUDY    63  57  81 E16G25    29.82S
PONCA CITY     CLOUDY    54  50  86 NE10      29.86S
MCALESTER      CLOUDY    64  59  83 VRB6G22   29.79F
OKLAHOMA CITY  CLOUDY    61  60  97 E17       29.75F

......IOWA............

CITY           SKY/WX    TMP DP  RH WIND       PRES   REMARKS
DES MOINES     CLOUDY    47  40  76 E6        30.12S
QUAD CITIES    CLOUDY    48  40  73 NE3       30.12R

......ILLINOIS........

CITY           SKY/WX    TMP DP  RH WIND       PRES   REMARKS
QUINCY         CLOUDY    52  47  83 NE15      30.06F
CHICAGO        CLOUDY    44  39  82 NE12      30.10S




USA.gov is the U.S. government's official web portal to all federal, state and local government web resources and services.